Lexington Weather

Lexington, Massachusetts, USA

70°F
8/17/2022 6:42pm 
  • Lexington Conditions: Overcast
  • Temperature: 69.8°F / 21.0°CColder 0.2°F than last hour.
  • Dew Point: 58.3°FDecreased 0.2°Fsince last hour.
  • Relative Humidity: 67
  • Wind: Calm, 10-min avg: Calm, gust: 3 mph
  • Barometer: 29.85 in Steady
  • Visibility: 10 miles
  • Rain Today: 0.00 in
  •   

Regional Weather Roundup
for Boston, MA

        
000
ASUS41 KBOX 121210
RWRBOX

REGIONAL WEATHER ROUNDUP
NATIONAL WEATHER SERVICE BOSTON/NORTON MA
800 AM EDT FRI AUG 12 2022

NOTE:  "FAIR" INDICATES FEW OR NO CLOUDS BELOW 12,000 FEET WITH NO 
SIGNIFICANT WEATHER AND/OR OBSTRUCTIONS TO VISIBILITY.

MAZALL-121300-
EASTERN MASSACHUSETTS
  
CITY           SKY/WX    TMP DP  RH WIND       PRES   REMARKS
BOSTON         PTSUNNY   70  58  65 NW13      29.95R                  
6HR MIN TEMP:  68; 6HR MAX TEMP:  73;                                

BEVERLY        SUNNY     67  60  78 NW9       29.94R                  
LAWRENCE       SUNNY     68  57  68 NW8       29.97S                  
BEDFORD        SUNNY     69  59  70 N7        29.95R                  
BLUE HILL      NOT AVBL                                               
NORWOOD        SUNNY     71  59  65 NW9       29.95R                  
MARSHFIELD     PTSUNNY   68  61  77 VRB6G14   29.94R                  
PLYMOUTH       CLOUDY    68  62  81 N9        29.95R                  
TAUNTON          N/A    N/A N/A N/A MISG      29.94R                  
NEW BEDFORD    SUNNY     69  63  81 N6        29.94R                  
$$

MAZALL-121300-
CAPE COD AND THE ISLANDS
  
CITY           SKY/WX    TMP DP  RH WIND       PRES   REMARKS
FALMOUTH       PTSUNNY   66  66 100 N9        29.84                   
HYANNIS        CLOUDY    68  64  87 N6        29.92R                  
CHATHAM        CLOUDY    68  65  90 VRB3      29.94R                  
NANTUCKET      CLOUDY    73  70  90 S3        29.93R                  
MARTHAS VNYRD  PTSUNNY   70  67  90 N7        29.93S                  
$$
 
MAZALL-121300-
CENTRAL AND WESTERN MASSACHUSETTS
  
CITY           SKY/WX    TMP DP  RH WIND       PRES   REMARKS
WORCESTER      SUNNY     65  52  62 N14       30.00R                  
6HR MIN TEMP:  63; 6HR MAX TEMP:  69;                                

FITCHBURG      SUNNY     68  51  54 N12       29.99R                  
ORANGE         SUNNY     65  53  65 NW10      30.02R                  
SPRINGFIELD    PTSUNNY   67  54  63 N7        29.98R                  
WESTFIELD      SUNNY     68  54  60 N6        30.00R                  
NORTH ADAMS    SUNNY     61  57  87 VRB3      30.05R                  
PITTSFIELD     SUNNY     64  53  67 N3        30.03S                  
$$
 
RIZALL-121300-
RHODE ISLAND
  
CITY           SKY/WX    TMP DP  RH WIND       PRES   REMARKS
PROVIDENCE     MOSUNNY   70  58  65 N14       29.96R                  
6HR MIN TEMP:  69; 6HR MAX TEMP:  72;                                

NEWPORT        SUNNY     69  61  75 N10       29.94R                  
BLOCK ISLAND   PTSUNNY   69  63  81 N7        29.96R                  
SMITHFIELD     SUNNY     68  58  70 N12       29.97R                  
WESTERLY       SUNNY     68  60  75 N10       29.95R                  
$$
 
CTZALL-121300-
CONNECTICUT
  
CITY           SKY/WX    TMP DP  RH WIND       PRES   REMARKS
BRADLEY INTL   MOSUNNY   67  58  72 NW6       30.00R                  
6HR MIN TEMP:  63; 6HR MAX TEMP:  68;                                

HARTFORD       SUNNY     69  56  62 VRB6      29.99R                  
BRIDGEPORT     MOSUNNY   71  56  58 N12       29.97R                  
DANBURY        SUNNY     70  55  59 N8        30.02R                  
GROTON         MOSUNNY   70  59  68 N10       29.95R                  
NEW HAVEN      PTSUNNY   72  58  61 N13G23    29.97R                  
CHESTER        FAIR      66  61  82 N8G15     29.98R                  
MERIDEN        SUNNY     70  54  56 N8        29.99R                  
WILLIMANTIC    SUNNY     69  59  70 N8        29.97S                  
OXFORD         SUNNY     67  57  70 N12       30.01R                  
$$

MEZ002-015-021-024-NHZ003-005-008-011-012-014-VTZ005-008-121300-
NORTHERN NEW ENGLAND
  
CITY           SKY/WX    TMP DP  RH WIND       PRES   REMARKS
PORTLAND ME    MOSUNNY   68  58  70 NW9       29.94R                  
6HR MIN TEMP:  60; 6HR MAX TEMP:  68;                                

BANGOR ME      PTSUNNY   68  62  81 NW13      29.93R                  
CONCORD NH     SUNNY     65  55  70 NW8       29.98R                  
MANCHESTER NH  MOSUNNY   68  55  63 N13       29.96R                  
NASHUA NH      SUNNY     67  58  72 NW12      29.98R                  
PORTSMOUTH NH  PTSUNNY   67  59  77 W6        29.95R                  
JAFFREY NH     SUNNY     64  52  64 VRB6      30.01R                  
KEENE NH       SUNNY     63  56  78 N13         N/A                   
BURLINGTON VT  PTSUNNY   61  53  75 NW8       30.06R                  
MT. WASHINGTON NOT AVBL                                               
$$

NYZ052-076-121300-
EASTERN NEW YORK
  
CITY           SKY/WX    TMP DP  RH WIND       PRES   REMARKS
ALBANY         MOSUNNY   65  57  75 N6        30.06R                  
6HR MIN TEMP:  60; 6HR MAX TEMP:  65;                                

NEW YORK CITY  PTSUNNY   72  56  57 N12       29.98R                  
6HR MIN TEMP:  72; 6HR MAX TEMP:  77;                                

$$
 
ANZALL-121300-
MARINE OBSERVATIONS
  
STATION/POSITION TIME  TEMP    WIND        PRES    VSBY  WAVE
                       AIR SEA DIR/SP/G                  HT/PER
                 (UTC) (F)     (DEG/KT/KT) (MB)    (MI)  (FT/S)
BOSTON BUOY      NOT AVBL
BUZZARDS BAY     NOT AVBL
NANTUCKET SOUND  NOT AVBL
MASS BAY-STELLWA NOT AVBL
ISLE OF SHOALS   NOT AVBL
S OF BLOCK IS    NOT AVBL
$$

......................KEY.........................
  SKY/WX - SKY CONDITION/PRESENT WEATHER
  TMP    - TEMPERATURE IN FAHRENHEIT
  DWPT   - DEWPOINT IN FAHRENHEIT
  RH     - RELATIVE HUMIDITY IN PERCENT
  WIND   - DIRECTION AND SPEED IN MPH
  PRES   - MEAN SEA LEVEL PRESSURE IN INCHES OF HG
  WCI    - WIND CHILL INDEX
  VSB    - VISIBILITY IN MILES
  HX     - HEAT INDEX
  TC     - TEMPERATURE IN CELSIUS
  VRB    - VARIABLE WIND DIRECTION
  N/A    - NOT AVAILABLE
  
      

Other recent Regional Weather Roundups

Wed Aug 17, 6:10pm

Wed Aug 17, 5:10pm

Wed Aug 17, 4:10pm

Wed Aug 17, 3:10pm

Wed Aug 17, 2:10pm

Wed Aug 17, 1:10pm

Wed Aug 17, 12:10pm

Wed Aug 17, 11:10am

Wed Aug 17, 10:10am

Wed Aug 17, 9:10am

Wed Aug 17, 8:10am

Wed Aug 17, 7:10am

Wed Aug 17, 6:10am

Wed Aug 17, 5:10am

Wed Aug 17, 4:10am

Wed Aug 17, 3:10am

Wed Aug 17, 2:10am

Wed Aug 17, 1:10am

Wed Aug 17, 12:10am

Tue Aug 16, 11:10pm

Tue Aug 16, 10:10pm

Tue Aug 16, 9:10pm

Tue Aug 16, 8:10pm

Tue Aug 16, 7:10pm

Tue Aug 16, 6:10pm

Tue Aug 16, 5:10pm

Tue Aug 16, 4:10pm

Tue Aug 16, 3:10pm

Tue Aug 16, 2:10pm

Tue Aug 16, 1:10pm

Tue Aug 16, 12:10pm

Tue Aug 16, 11:10am

Tue Aug 16, 10:10am

Tue Aug 16, 9:10am

Tue Aug 16, 8:10am

Tue Aug 16, 7:10am

Tue Aug 16, 6:10am

Tue Aug 16, 5:10am

Tue Aug 16, 4:10am

Tue Aug 16, 3:10am

Tue Aug 16, 2:10am

Tue Aug 16, 1:10am

Tue Aug 16, 12:10am

Mon Aug 15, 11:10pm

Mon Aug 15, 10:10pm

Mon Aug 15, 9:10pm

Mon Aug 15, 8:10pm

Mon Aug 15, 7:10pm

Mon Aug 15, 6:10pm

Mon Aug 15, 5:10pm

Mon Aug 15, 4:10pm

Mon Aug 15, 3:10pm

Mon Aug 15, 2:10pm

Mon Aug 15, 1:10pm

Mon Aug 15, 12:10pm

Mon Aug 15, 11:10am

Mon Aug 15, 10:10am

Mon Aug 15, 9:10am

Mon Aug 15, 8:10am

Mon Aug 15, 7:10am

Mon Aug 15, 6:10am

Mon Aug 15, 5:10am

Mon Aug 15, 4:10am

Mon Aug 15, 3:10am

Mon Aug 15, 2:10am

Mon Aug 15, 1:10am

Mon Aug 15, 12:10am

Sun Aug 14, 11:10pm

Sun Aug 14, 10:10pm

Sun Aug 14, 9:10pm

Sun Aug 14, 8:10pm

Sun Aug 14, 7:10pm

Sun Aug 14, 6:10pm

Sun Aug 14, 5:10pm

Sun Aug 14, 4:10pm

Sun Aug 14, 3:10pm

Sun Aug 14, 2:10pm

Sun Aug 14, 1:10pm

Sun Aug 14, 12:10pm

Sun Aug 14, 11:10am

Sun Aug 14, 10:10am

Sun Aug 14, 9:10am

Sun Aug 14, 8:10am

Sun Aug 14, 7:10am

Sun Aug 14, 6:10am

Sun Aug 14, 5:10am

Sun Aug 14, 4:10am

Sun Aug 14, 3:10am

Sun Aug 14, 2:10am

Sun Aug 14, 1:10am

Sun Aug 14, 12:10am

Sat Aug 13, 11:10pm

Sat Aug 13, 10:10pm

Sat Aug 13, 9:10pm

Sat Aug 13, 8:10pm

Sat Aug 13, 7:10pm

Sat Aug 13, 6:10pm

Sat Aug 13, 5:10pm

Sat Aug 13, 4:10pm

Sat Aug 13, 3:10pm

Sat Aug 13, 2:10pm

Sat Aug 13, 1:10pm

Sat Aug 13, 12:10pm

Sat Aug 13, 11:10am

Sat Aug 13, 10:10am

Sat Aug 13, 9:10am

Sat Aug 13, 8:10am

Sat Aug 13, 7:10am

Sat Aug 13, 6:10am

Sat Aug 13, 5:10am

Sat Aug 13, 4:10am

Sat Aug 13, 3:10am

Sat Aug 13, 2:10am

Sat Aug 13, 1:10am

Sat Aug 13, 12:10am

Fri Aug 12, 11:10pm

Fri Aug 12, 10:10pm

Fri Aug 12, 9:10pm

Fri Aug 12, 8:10pm

Fri Aug 12, 7:10pm

Fri Aug 12, 6:10pm

Fri Aug 12, 5:10pm

Fri Aug 12, 4:10pm

Fri Aug 12, 3:10pm

Fri Aug 12, 2:10pm

Fri Aug 12, 1:10pm

Fri Aug 12, 12:10pm

Fri Aug 12, 11:10am

Fri Aug 12, 10:10am

Fri Aug 12, 9:10am

Fri Aug 12, 7:10am

Fri Aug 12, 6:10am

Fri Aug 12, 5:10am

Fri Aug 12, 4:10am

Fri Aug 12, 3:10am

Fri Aug 12, 2:10am

Fri Aug 12, 1:10am

Fri Aug 12, 12:10am

Thu Aug 11, 11:10pm

Thu Aug 11, 10:10pm

Thu Aug 11, 9:10pm

Thu Aug 11, 8:10pm

Thu Aug 11, 7:10pm

Thu Aug 11, 6:10pm

Thu Aug 11, 5:10pm

Thu Aug 11, 4:10pm

Thu Aug 11, 3:10pm

Thu Aug 11, 2:10pm

Thu Aug 11, 1:10pm

Thu Aug 11, 12:10pm

Thu Aug 11, 11:10am

Thu Aug 11, 10:10am

Thu Aug 11, 9:10am

Thu Aug 11, 8:10am

Thu Aug 11, 7:10am

Thu Aug 11, 6:10am

Thu Aug 11, 5:10am

Thu Aug 11, 4:10am

Thu Aug 11, 3:10am

Thu Aug 11, 2:10am

Thu Aug 11, 1:10am

Thu Aug 11, 12:10am

Wed Aug 10, 11:10pm

Wed Aug 10, 10:10pm

Wed Aug 10, 9:10pm

Wed Aug 10, 8:10pm

Wed Aug 10, 7:10pm

Meta data:

ID: 29d664bf-ad18-42c3-88a2-999857413e94
Link: https://api.weather.gov/products/29d664bf-ad18-42c3-88a2-999857413e94